Time,TemperatureF,DewpointF,PressureIn,WindDirection,WindDirectionDegrees,WindSpeedMPH,WindSpeedGustMPH,Humidity,HourlyPrecipIn,Conditions,Clouds,dailyrainin,SolarRadiationWatts/m^2,SoftwareType,DateUTC
2013-04-19 00:00:00,66.3,57.8,29.81,South,169,13.0,22.0,74,0.00,,---,0.02,0.00,VWS V14.01,2013-04-19 04:00:00,
2013-04-19 00:26:00,66.3,57.8,29.79,SE,146,20.0,28.0,74,0.00,,---,0.00,0.00,VWS V14.01,2013-04-19 04:26:00,
2013-04-19 00:30:00,66.3,57.8,29.79,SE,146,20.0,28.0,74,0.00,,---,0.00,0.00,VWS V14.01,2013-04-19 04:30:00,
2013-04-19 00:56:00,66.6,57.7,29.79,SSE,168,9.0,32.0,73,0.00,,---,0.00,0.00,VWS V14.01,2013-04-19 04:56:00,
2013-04-19 01:00:00,66.6,57.7,29.79,SSE,168,9.0,32.0,73,0.00,,---,0.00,0.00,VWS V14.01,2013-04-19 05:00:00,
2013-04-19 01:26:00,66.7,57.8,29.77,South,178,15.0,24.0,73,0.00,,---,0.00,0.00,VWS V14.01,2013-04-19 05:26:00,
2013-04-19 01:30:00,66.7,57.8,29.77,South,178,15.0,24.0,73,0.00,,---,0.00,0.00,VWS V14.01,2013-04-19 05:30:00,
2013-04-19 01:56:00,66.7,57.4,29.76,South,173,10.0,24.0,72,0.00,,---,0.00,0.00,VWS V14.01,2013-04-19 05:56:00,
2013-04-19 02:00:00,66.7,57.4,29.76,South,173,10.0,24.0,72,0.00,,---,0.00,0.00,VWS V14.01,2013-04-19 06:00:00,
2013-04-19 02:26:00,66.3,57.4,29.75,SSE,159,8.0,24.0,73,0.00,,---,0.00,0.00,VWS V14.01,2013-04-19 06:26:00,
2013-04-19 02:30:00,66.3,57.4,29.75,SSE,159,8.0,24.0,73,0.00,,---,0.00,0.00,VWS V14.01,2013-04-19 06:30:00,
2013-04-19 02:56:00,66.3,57.0,29.74,SSE,157,13.0,22.0,72,0.00,,---,0.00,0.00,VWS V14.01,2013-04-19 06:56:00,
2013-04-19 03:00:00,66.3,57.0,29.74,SSE,157,13.0,22.0,72,0.00,,---,0.00,0.00,VWS V14.01,2013-04-19 07:00:00,
2013-04-19 03:26:00,66.2,56.9,29.74,SSW,206,7.0,16.0,72,0.00,,---,0.00,0.00,VWS V14.01,2013-04-19 07:26:00,
2013-04-19 03:30:00,66.2,56.9,29.74,SSW,206,7.0,16.0,72,0.00,,---,0.00,0.00,VWS V14.01,2013-04-19 07:30:00,
2013-04-19 03:56:00,66.1,57.2,29.74,SE,131,7.0,18.0,73,0.00,,---,0.00,0.00,VWS V14.01,2013-04-19 07:56:00,
2013-04-19 04:00:00,66.1,57.2,29.74,SE,131,7.0,18.0,73,0.00,,---,0.00,0.00,VWS V14.01,2013-04-19 08:00:00,
2013-04-19 04:26:00,65.9,56.6,29.73,SSE,165,10.0,17.0,72,0.00,,---,0.00,0.00,VWS V14.01,2013-04-19 08:26:00,
2013-04-19 04:30:00,65.9,56.6,29.73,SSE,165,10.0,17.0,72,0.00,,---,0.00,0.00,VWS V14.01,2013-04-19 08:30:00,
2013-04-19 04:56:00,65.6,56.7,29.73,SSE,166,9.0,22.0,73,0.00,,---,0.00,0.00,VWS V14.01,2013-04-19 08:56:00,
2013-04-19 05:00:00,65.6,56.7,29.73,SSE,166,9.0,22.0,73,0.00,,---,0.00,0.00,VWS V14.01,2013-04-19 09:00:00,
2013-04-19 05:26:00,65.4,56.5,29.72,SSE,159,13.0,22.0,73,0.00,,---,0.00,0.00,VWS V14.01,2013-04-19 09:26:00,
2013-04-19 05:30:00,65.4,56.5,29.72,SSE,159,13.0,22.0,73,0.00,,---,0.00,0.00,VWS V14.01,2013-04-19 09:30:00,
2013-04-19 05:56:00,65.0,56.5,29.72,SE,125,13.0,22.0,74,0.00,,---,0.00,0.00,VWS V14.01,2013-04-19 09:56:00,
2013-04-19 06:00:00,65.0,56.5,29.72,SE,125,13.0,22.0,74,0.00,,---,0.00,0.00,VWS V14.01,2013-04-19 10:00:00,
2013-04-19 06:26:00,64.9,56.4,29.72,SSE,167,10.0,23.0,74,0.00,,---,0.00,0.00,VWS V14.01,2013-04-19 10:26:00,
2013-04-19 06:30:00,64.9,56.4,29.72,SSE,167,10.0,23.0,74,0.00,,---,0.00,0.00,VWS V14.01,2013-04-19 10:30:00,
2013-04-19 06:56:00,64.8,56.7,29.71,SSE,154,13.0,22.0,75,0.00,,---,0.00,19.00,VWS V14.01,2013-04-19 10:56:00,
2013-04-19 07:00:00,64.8,56.7,29.71,SSE,154,13.0,22.0,75,0.00,,---,0.00,19.00,VWS V14.01,2013-04-19 11:00:00,
2013-04-19 07:26:00,65.3,56.8,29.70,SSE,151,9.0,22.0,74,0.00,,---,0.00,63.00,VWS V14.01,2013-04-19 11:26:00,
2013-04-19 07:30:00,65.3,56.8,29.70,SSE,151,9.0,22.0,74,0.00,,---,0.00,63.00,VWS V14.01,2013-04-19 11:30:00,
2013-04-19 07:56:00,66.0,57.1,29.69,South,182,8.0,22.0,73,0.00,,---,0.00,72.00,VWS V14.01,2013-04-19 11:56:00,
2013-04-19 08:00:00,66.0,57.1,29.69,South,182,8.0,22.0,73,0.00,,---,0.00,72.00,VWS V14.01,2013-04-19 12:00:00,
2013-04-19 08:26:00,66.5,57.2,29.68,SSE,151,10.0,23.0,72,0.00,,---,0.00,95.00,VWS V14.01,2013-04-19 12:26:00,
2013-04-19 08:30:00,66.5,57.2,29.68,SSE,151,10.0,23.0,72,0.00,,---,0.00,95.00,VWS V14.01,2013-04-19 12:30:00,
2013-04-19 08:56:00,66.8,57.5,29.66,South,188,12.0,19.0,72,0.00,,---,0.00,135.00,VWS V14.01,2013-04-19 12:56:00,
2013-04-19 09:00:00,66.8,57.5,29.66,South,188,12.0,19.0,72,0.00,,---,0.00,135.00,VWS V14.01,2013-04-19 13:00:00,
2013-04-19 09:26:00,67.6,57.5,29.65,SSW,198,8.0,21.0,70,0.00,,---,0.00,81.00,VWS V14.01,2013-04-19 13:26:00,
2013-04-19 09:30:00,67.6,57.5,29.65,SSW,198,8.0,21.0,70,0.00,,---,0.00,81.00,VWS V14.01,2013-04-19 13:30:00,
2013-04-19 09:56:00,67.6,57.5,29.62,South,179,18.0,23.0,70,0.00,,---,0.00,76.00,VWS V14.01,2013-04-19 13:56:00,
2013-04-19 10:00:00,67.6,57.5,29.62,South,179,18.0,23.0,70,0.00,,---,0.00,76.00,VWS V14.01,2013-04-19 14:00:00,
2013-04-19 10:26:00,68.0,57.5,29.60,SSW,200,5.0,24.0,69,0.00,,---,0.00,88.00,VWS V14.01,2013-04-19 14:26:00,
2013-04-19 10:30:00,68.0,57.5,29.60,SSW,200,5.0,24.0,69,0.00,,---,0.00,88.00,VWS V14.01,2013-04-19 14:30:00,
2013-04-19 10:56:00,68.5,57.5,29.59,SE,135,10.0,20.0,68,0.00,,---,0.00,142.00,VWS V14.01,2013-04-19 14:56:00,
2013-04-19 11:00:00,68.5,57.5,29.59,SE,135,10.0,20.0,68,0.00,,---,0.00,142.00,VWS V14.01,2013-04-19 15:00:00,
2013-04-19 11:26:00,69.3,57.5,29.58,SSE,163,12.0,25.0,66,0.00,,---,0.00,90.00,VWS V14.01,2013-04-19 15:26:00,
2013-04-19 11:30:00,69.3,57.5,29.58,SSE,163,12.0,25.0,66,0.00,,---,0.00,90.00,VWS V14.01,2013-04-19 15:30:00,
2013-04-19 11:56:00,69.8,57.5,29.56,SSW,198,14.0,27.0,65,0.00,,---,0.00,100.00,VWS V14.01,2013-04-19 15:56:00,
2013-04-19 12:00:00,69.8,57.5,29.56,SSW,198,14.0,27.0,65,0.00,,---,0.00,100.00,VWS V14.01,2013-04-19 16:00:00,
2013-04-19 12:26:00,70.4,57.7,29.53,SSE,166,13.0,31.0,64,0.00,,---,0.00,127.00,VWS V14.01,2013-04-19 16:26:00,
2013-04-19 12:30:00,70.4,57.7,29.53,SSE,166,13.0,31.0,64,0.00,,---,0.00,127.00,VWS V14.01,2013-04-19 16:30:00,
2013-04-19 12:56:00,70.8,58.5,29.52,SE,135,11.0,27.0,65,0.00,,---,0.00,225.00,VWS V14.01,2013-04-19 16:56:00,
2013-04-19 13:00:00,70.8,58.5,29.52,SE,135,11.0,27.0,65,0.00,,---,0.00,225.00,VWS V14.01,2013-04-19 17:00:00,
2013-04-19 13:26:00,70.1,59.5,29.53,SSE,150,13.0,30.0,69,0.00,,---,0.00,118.00,VWS V14.01,2013-04-19 17:26:00,
2013-04-19 13:30:00,70.1,59.5,29.53,SSE,150,13.0,30.0,69,0.00,,---,0.00,118.00,VWS V14.01,2013-04-19 17:30:00,
2013-04-19 13:56:00,70.5,59.8,29.48,South,178,11.0,27.0,69,0.02,,---,0.02,364.00,VWS V14.01,2013-04-19 17:56:00,
2013-04-19 14:00:00,70.5,59.8,29.48,South,178,11.0,27.0,69,0.02,,---,0.02,364.00,VWS V14.01,2013-04-19 18:00:00,
2013-04-19 14:26:00,71.2,60.1,29.48,SSE,161,16.0,29.0,68,0.02,,---,0.02,311.00,VWS V14.01,2013-04-19 18:26:00,
2013-04-19 14:30:00,71.2,60.1,29.48,SSE,161,16.0,29.0,68,0.02,,---,0.02,311.00,VWS V14.01,2013-04-19 18:30:00,
2013-04-19 14:56:00,71.9,59.5,29.46,South,177,21.0,33.0,65,0.02,,---,0.02,272.00,VWS V14.01,2013-04-19 18:56:00,
2013-04-19 15:00:00,71.9,59.5,29.46,South,177,21.0,33.0,65,0.02,,---,0.02,272.00,VWS V14.01,2013-04-19 19:00:00,
2013-04-19 15:26:00,69.5,53.6,29.49,WNW,293,17.0,27.0,57,0.00,,---,0.02,14.00,VWS V14.01,2013-04-19 19:26:00,
2013-04-19 15:30:00,69.5,53.6,29.49,WNW,293,17.0,27.0,57,0.00,,---,0.02,14.00,VWS V14.01,2013-04-19 19:30:00,
2013-04-19 15:56:00,52.1,44.4,29.55,West,269,15.0,27.0,75,0.00,,---,0.02,28.00,VWS V14.01,2013-04-19 19:56:00,
2013-04-19 16:00:00,52.1,44.4,29.55,West,269,15.0,27.0,75,0.00,,---,0.02,28.00,VWS V14.01,2013-04-19 20:00:00,
2013-04-19 16:26:00,49.4,43.2,29.58,West,277,7.0,26.0,79,0.00,,---,0.02,67.00,VWS V14.01,2013-04-19 20:26:00,
2013-04-19 16:30:00,49.4,43.2,29.58,West,277,7.0,26.0,79,0.00,,---,0.02,67.00,VWS V14.01,2013-04-19 20:30:00,
2013-04-19 16:56:00,47.3,41.5,29.62,WSW,258,21.0,29.0,80,0.00,,---,0.02,16.00,VWS V14.01,2013-04-19 20:56:00,
2013-04-19 17:00:00,47.3,41.5,29.62,WSW,258,21.0,29.0,80,0.00,,---,0.02,16.00,VWS V14.01,2013-04-19 21:00:00,
2013-04-19 17:26:00,45.0,40.2,29.62,WNW,294,16.0,27.0,83,0.01,,---,0.03,39.00,VWS V14.01,2013-04-19 21:26:00,
2013-04-19 17:30:00,45.0,40.2,29.62,WNW,294,16.0,27.0,83,0.01,,---,0.03,39.00,VWS V14.01,2013-04-19 21:30:00,
2013-04-19 17:56:00,43.3,38.8,29.65,WNW,294,16.0,31.0,84,0.04,,---,0.06,12.00,VWS V14.01,2013-04-19 21:56:00,
2013-04-19 18:00:00,43.3,38.8,29.65,WNW,294,16.0,31.0,84,0.04,,---,0.06,12.00,VWS V14.01,2013-04-19 22:00:00,
2013-04-19 18:26:00,42.9,38.4,29.67,WSW,253,10.0,26.0,84,0.08,,---,0.10,18.00,VWS V14.01,2013-04-19 22:26:00,
2013-04-19 18:30:00,42.9,38.4,29.67,WSW,253,10.0,26.0,84,0.08,,---,0.10,18.00,VWS V14.01,2013-04-19 22:30:00,
2013-04-19 18:56:00,43.4,37.3,29.67,WSW,252,17.0,30.0,79,0.07,,---,0.10,11.00,VWS V14.01,2013-04-19 22:56:00,
2013-04-19 19:00:00,43.4,37.3,29.67,WSW,252,17.0,30.0,79,0.07,,---,0.10,11.00,VWS V14.01,2013-04-19 23:00:00,
2013-04-19 19:26:00,43.7,36.3,29.71,West,267,16.0,33.0,75,0.04,,---,0.10,7.00,VWS V14.01,2013-04-19 23:26:00,
2013-04-19 19:30:00,43.7,36.3,29.71,West,267,16.0,33.0,75,0.04,,---,0.10,7.00,VWS V14.01,2013-04-19 23:30:00,
2013-04-19 19:56:00,43.8,35.7,29.73,WSW,252,15.0,26.0,73,0.00,,---,0.10,5.00,VWS V14.01,2013-04-19 23:56:00,
2013-04-19 20:00:00,43.8,35.7,29.73,WSW,252,15.0,26.0,73,0.00,,---,0.10,5.00,VWS V14.01,2013-04-20 00:00:00,
2013-04-19 20:26:00,44.0,35.2,29.77,WSW,250,12.0,25.0,71,0.00,,---,0.10,0.00,VWS V14.01,2013-04-20 00:26:00,
2013-04-19 20:30:00,44.0,35.2,29.77,WSW,250,12.0,25.0,71,0.00,,---,0.10,0.00,VWS V14.01,2013-04-20 00:30:00,
2013-04-19 20:56:00,43.9,34.4,29.78,WSW,252,12.0,22.0,69,0.00,,---,0.10,0.00,VWS V14.01,2013-04-20 00:56:00,
2013-04-19 21:00:00,43.9,34.4,29.78,WSW,252,12.0,22.0,69,0.00,,---,0.10,0.00,VWS V14.01,2013-04-20 01:00:00,
2013-04-19 21:26:00,43.9,34.4,29.81,West,271,7.0,23.0,69,0.00,,---,0.10,0.00,VWS V14.01,2013-04-20 01:26:00,
2013-04-19 21:30:00,43.9,34.4,29.81,West,271,7.0,23.0,69,0.00,,---,0.10,0.00,VWS V14.01,2013-04-20 01:30:00,
2013-04-19 21:56:00,43.6,33.4,29.82,WSW,256,10.0,19.0,67,0.00,,---,0.10,0.00,VWS V14.01,2013-04-20 01:56:00,
2013-04-19 22:00:00,43.6,33.4,29.82,WSW,256,10.0,19.0,67,0.00,,---,0.10,0.00,VWS V14.01,2013-04-20 02:00:00,
2013-04-19 22:26:00,43.5,32.9,29.83,SW,231,21.0,21.0,66,0.00,,---,0.10,0.00,VWS V14.01,2013-04-20 02:26:00,
2013-04-19 22:30:00,43.5,32.9,29.83,SW,231,21.0,21.0,66,0.00,,---,0.10,0.00,VWS V14.01,2013-04-20 02:30:00,
2013-04-19 22:56:00,43.7,32.3,29.84,WSW,254,13.0,22.0,64,0.00,,---,0.10,0.00,VWS V14.01,2013-04-20 02:56:00,
2013-04-19 23:00:00,43.7,32.3,29.84,WSW,254,13.0,22.0,64,0.00,,---,0.10,0.00,VWS V14.01,2013-04-20 03:00:00,
2013-04-19 23:26:00,43.7,32.3,29.85,SSW,213,9.0,24.0,64,0.00,,---,0.10,0.00,VWS V14.01,2013-04-20 03:26:00,
2013-04-19 23:30:00,43.7,32.3,29.85,SSW,213,9.0,24.0,64,0.00,,---,0.10,0.00,VWS V14.01,2013-04-20 03:30:00,
2013-04-19 23:56:00,43.5,31.4,29.84,SW,222,6.0,20.0,62,0.00,,---,0.10,0.00,VWS V14.01,2013-04-20 03:56:00,